| time (UTC) | temp C | wind direction | speed KPH | gust KPH | rain 1hr cm | rain 24hr cm | rain mn cm | humidity % | barometer mb |
| 20260506201527 | 15 | 238 | 0.0 | 0.0 | 0.00 | 0.71 | 0.71 | 98 | 1005.2 |
| 20260506200025 | 15 | 360 | 0.0 | 0.0 | 0.00 | 0.71 | 0.71 | 99 | 1005.4 |
| 20260506194507 | 15 | 360 | 0.0 | 0.0 | 0.03 | 0.71 | 0.71 | 98 | 1005.5 |
| 20260506193004 | 15 | 243 | 0.0 | 0.0 | 0.08 | 0.71 | 0.71 | 98 | 1005.6 |
| 20260506191603 | 15 | 188 | 0.0 | 0.0 | 0.13 | 0.71 | 0.71 | 98 | 1005.9 |
| 20260506190044 | 15 | 261 | 0.0 | 0.0 | 0.18 | 0.71 | 0.71 | 98 | 1006.0 |
| 20260506184544 | 15 | 360 | 0.0 | 0.0 | 0.23 | 0.71 | 0.71 | 98 | 1006.1 |
| 20260506183030 | 15 | 220 | 0.0 | 0.0 | 0.28 | 0.66 | 0.66 | 98 | 1006.2 |
| 20260506181530 | 15 | 360 | 0.0 | 0.0 | 0.25 | 0.61 | 0.61 | 97 | 1006.3 |
| 20260506180030 | 15 | 265 | 0.0 | 0.0 | 0.18 | 0.53 | 0.53 | 97 | 1006.3 |
| 20260506174528 | 15 | 239 | 0.0 | 0.0 | 0.13 | 0.48 | 0.48 | 97 | 1006.4 |
| 20260506173030 | 15 | 360 | 0.0 | 0.0 | 0.05 | 0.38 | 0.38 | 96 | 1006.6 |
| 20260506171527 | 15 | 212 | 0.0 | 0.0 | 0.05 | 0.36 | 0.36 | 96 | 1006.5 |
| 20260506170025 | 15 | 211 | 0.0 | 0.0 | 0.10 | 0.36 | 0.36 | 96 | 1006.5 |
| 20260506164524 | 16 | 360 | 0.0 | 0.0 | 0.15 | 0.36 | 0.36 | 96 | 1006.6 |
| 20260506163006 | 16 | 213 | 0.0 | 0.0 | 0.18 | 0.33 | 0.33 | 95 | 1006.4 |
| 20260506161504 | 16 | 250 | 0.0 | 0.0 | 0.20 | 0.30 | 0.30 | 95 | 1006.5 |
| 20260506160057 | 16 | 262 | 0.0 | 0.0 | 0.18 | 0.25 | 0.25 | 94 | 1007.3 |
| 20260506154544 | 16 | 243 | 0.0 | 0.0 | 0.18 | 0.20 | 0.20 | 93 | 1007.7 |
| 20260506153022 | 16 | 360 | 0.0 | 0.0 | 0.15 | 0.15 | 0.15 | 92 | 1007.5 |
| 20260506151522 | 17 | 166 | 0.0 | 0.0 | 0.10 | 0.10 | 0.10 | 91 | 1007.3 |
| 20260506150002 | 17 | 169 | 0.0 | 0.0 | 0.08 | 0.08 | 0.08 | 89 | 1007.3 |
| 20260506144602 | 17 | 204 | 0.0 | 0.0 | 0.03 | 0.03 | 0.03 | 85 | 1007.7 |
| 20260506143041 | 17 | 159 | 0.0 | 0.0 | 0.00 | 0.00 | 0.00 | 84 | 1007.7 |
| 20260506141540 | 17 | 219 | 0.0 | 0.0 | 0.00 | 0.00 | 0.00 | 84 | 1007.6 |
| 20260506140022 | 17 | 360 | 0.0 | 0.0 | 0.00 | 0.00 | 0.00 | 84 | 1007.4 |
| 20260506134524 | 17 | 268 | 0.0 | 0.0 | 0.00 | 0.00 | 0.00 | 83 | 1007.5 |
| 20260506133004 | 17 | 217 | 0.0 | 0.0 | 0.00 | 0.00 | 0.00 | 82 | 1007.6 |
| 20260506131506 | 18 | 248 | 0.0 | 0.0 | 0.00 | 0.00 | 0.00 | 81 | 1007.8 |
| 20260506130052 | 18 | 223 | 0.0 | 0.0 | 0.00 | 0.00 | 0.00 | 81 | 1007.7 |
| 20260506124542 | 17 | 205 | 0.0 | 0.0 | 0.00 | 0.00 | 0.00 | 81 | 1007.7 |
| 20260506123022 | 17 | 178 | 0.0 | 0.0 | 0.00 | 0.00 | 0.00 | 81 | 1007.4 |
| 20260506121521 | 17 | 159 | 0.0 | 0.0 | 0.00 | 0.00 | 0.00 | 81 | 1007.5 |
| 20260506120008 | 17 | 202 | 0.0 | 0.0 | 0.00 | 0.00 | 0.00 | 82 | 1007.6 |
| 20260506114503 | 17 | 360 | 0.0 | 0.0 | 0.00 | 0.00 | 0.00 | 81 | 1007.6 |
| 20260506113046 | 17 | 223 | 0.0 | 0.0 | 0.00 | 0.00 | 0.00 | 82 | 1007.7 |
| 20260506111545 | 17 | 157 | 0.0 | 0.0 | 0.00 | 0.00 | 0.00 | 82 | 1007.5 |
| 20260506110027 | 17 | 360 | 0.0 | 0.0 | 0.00 | 0.00 | 0.00 | 82 | 1007.3 |
| 20260506104526 | 17 | 335 | 0.0 | 0.0 | 0.00 | 0.00 | 0.00 | 82 | 1007.1 |
| 20260506103009 | 17 | 166 | 0.0 | 0.0 | 0.00 | 0.00 | 0.00 | 82 | 1007.0 |
| 20260506101509 | 17 | 192 | 0.0 | 0.0 | 0.00 | 0.00 | 0.00 | 82 | 1007.1 |
| 20260506100049 | 17 | 205 | 0.0 | 0.0 | 0.00 | 0.00 | 0.00 | 81 | 1007.3 |
| 20260506094612 | 17 | 170 | 0.0 | 0.0 | 0.00 | 0.00 | 0.00 | 81 | 1007.1 |
| 20260506093037 | 17 | 283 | 0.0 | 0.0 | 0.00 | 0.00 | 0.00 | 80 | 1007.1 |
| 20260506091532 | 18 | 175 | 0.0 | 0.0 | 0.00 | 0.00 | 0.00 | 78 | 1007.0 |
| 20260506090012 | 18 | 35 | 0.0 | 0.0 | 0.00 | 0.00 | 0.00 | 77 | 1007.2 |
| 20260506084513 | 18 | 252 | 0.0 | 0.0 | 0.00 | 0.00 | 0.00 | 77 | 1007.2 |
| 20260506083058 | 18 | 188 | 0.0 | 0.0 | 0.00 | 0.00 | 0.00 | 76 | 1007.3 |
| 20260506081556 | 18 | 360 | 0.0 | 0.0 | 0.00 | 0.00 | 0.00 | 75 | 1007.3 |
| 20260506073041 | 18 | 190 | 0.0 | 0.0 | 0.00 | 0.00 | 0.00 | 71 | 1007.5 |
| 20260506071545 | 18 | 167 | 0.0 | 0.0 | 0.00 | 0.00 | 0.00 | 70 | 1007.6 |
| 20260506061539 | 19 | 228 | 0.0 | 0.0 | 0.00 | 0.00 | 0.00 | 68 | 1008.0 |
| 20260506044544 | 19 | 188 | 0.0 | 0.0 | 0.00 | 0.00 | 0.00 | 66 | 1008.4 |
| 20260506043027 | 20 | 190 | 0.0 | 0.0 | 0.00 | 0.00 | 0.00 | 66 | 1008.5 |
| 20260506041526 | 20 | 161 | 0.0 | 0.0 | 0.00 | 0.00 | 0.00 | 65 | 1008.2 |
| 20260506040010 | 20 | 246 | 0.0 | 0.0 | 0.00 | 0.00 | 0.00 | 63 | 1008.4 |
| 20260506034511 | 20 | 131 | 0.0 | 0.0 | 0.00 | 0.00 | 0.00 | 61 | 1008.4 |
| 20260506033051 | 21 | 259 | 0.0 | 0.0 | 0.00 | 0.00 | 0.00 | 59 | 1008.2 |
| 20260506031557 | 21 | 188 | 0.0 | 0.0 | 0.00 | 0.00 | 0.00 | 57 | 1008.2 |
| 20260506030036 | 21 | 170 | 0.0 | 0.0 | 0.00 | 0.00 | 0.00 | 55 | 1008.1 |
| 20260506024543 | 22 | 196 | 0.0 | 0.0 | 0.00 | 0.00 | 0.00 | 54 | 1008.2 |
| 20260506023014 | 22 | 205 | 0.0 | 0.0 | 0.00 | 0.00 | 0.00 | 54 | 1008.2 |
| 20260506021514 | 22 | 226 | 0.0 | 0.0 | 0.00 | 0.00 | 0.00 | 53 | 1008.1 |
| 20260506020056 | 22 | 178 | 0.0 | 0.0 | 0.00 | 0.00 | 0.00 | 52 | 1008.1 |
| 20260506014556 | 22 | 169 | 0.0 | 0.0 | 0.00 | 0.00 | 0.00 | 52 | 1008.1 |
| 20260506013044 | 22 | 187 | 0.0 | 0.0 | 0.00 | 0.00 | 0.00 | 52 | 1007.8 |
| 20260506011544 | 22 | 82 | 0.0 | 0.0 | 0.00 | 0.00 | 0.00 | 51 | 1007.6 |
| 20260506010046 | 23 | 190 | 0.0 | 0.0 | 0.00 | 0.00 | 0.00 | 49 | 1007.5 |
| 20260506004542 | 23 | 179 | 0.0 | 0.0 | 0.00 | 0.00 | 0.00 | 47 | 1007.3 |
| 20260506003042 | 23 | 360 | 0.0 | 0.0 | 0.00 | 0.00 | 0.00 | 46 | 1007.2 |
| 20260506001542 | 23 | 160 | 0.0 | 0.0 | 0.00 | 0.00 | 0.00 | 45 | 1007.0 |
| 20260506000041 | 24 | 177 | 0.0 | 0.0 | 0.00 | 0.00 | 0.00 | 43 | 1007.0 |
| 20260505234547 | 24 | 360 | 0.0 | 0.0 | 0.00 | 0.00 | 0.00 | 43 | 1006.9 |
| 20260505233023 | 24 | 260 | 0.0 | 0.0 | 0.00 | 0.00 | 0.00 | 43 | 1006.8 |
| 20260505231523 | 25 | 225 | 0.0 | 0.0 | 0.00 | 0.00 | 0.00 | 42 | 1006.8 |
| 20260505230015 | 25 | 217 | 0.0 | 0.0 | 0.00 | 0.00 | 0.00 | 43 | 1006.7 |
| 20260505224504 | 25 | 116 | 0.0 | 0.0 | 0.00 | 0.00 | 0.00 | 43 | 1006.6 |
| 20260505223046 | 25 | 215 | 0.0 | 0.0 | 0.00 | 0.00 | 0.00 | 42 | 1006.5 |
| 20260505221546 | 25 | 225 | 0.0 | 0.0 | 0.00 | 0.00 | 0.00 | 44 | 1006.3 |
| 20260505220032 | 25 | 167 | 0.0 | 0.0 | 0.00 | 0.00 | 0.00 | 41 | 1006.3 |
| 20260505214528 | 26 | 360 | 0.0 | 0.0 | 0.00 | 0.00 | 0.00 | 41 | 1006.3 |
| 20260505213011 | 26 | 187 | 0.0 | 0.0 | 0.00 | 0.00 | 0.00 | 41 | 1006.3 |
| 20260505211513 | 26 | 223 | 0.0 | 0.0 | 0.00 | 0.00 | 0.00 | 39 | 1006.1 |
| 20260505210051 | 27 | 234 | 0.0 | 0.0 | 0.00 | 0.00 | 0.00 | 39 | 1006.1 |
| 20260505204553 | 27 | 360 | 0.0 | 0.0 | 0.00 | 0.00 | 0.00 | 38 | 1005.9 |
| 20260505203032 | 27 | 237 | 0.0 | 0.0 | 0.00 | 0.00 | 0.00 | 38 | 1006.1 |